Tracking 25734 objects as of 28-May-2022
HD Live streaming from Space Station
objects crossing your sky now

CZ-2 DEB

Track CZ-2 DEB now!
10-day predictions


NORAD ID: 38659
Int'l Code: 2009-072G
Perigee: 1,145.8 km
Apogee: 1,351.6 km
Inclination: 100.5 °
Period: 110.3 minutes
Semi major axis: 7619 km
RCS: 0.0015 m2 (small)
Launch date: December 15, 2009
Source: People's Republic of China (PRC)
Launch site: Taiyaun Space Center, China (TSC)

Note: This is SATELLITE DEBRIS
aabbcc
Your satellite tracking list
Your tracking list is empty




NASA's NSSDC Master Catalog

Two Line Element Set (TLE):
1 38659U 09072G   22148.15495500 -.00000278  00000-0 -69120-3 0  9995
2 38659 100.5195 107.2458 0135043 156.7381 218.2588 13.05261322590539
Source of the keplerian elements: AFSPC